#Datum;Uhrzeit;WR;Pac;DaySum;Status;WR;Pac;DaySum;Status;Pdc1;Udc;Temp;WR;Pac;DaySum;Status;Pdc1;Udc;Temp;WR;Pac;DaySum;Status;Pdc1;Udc;Temp;WR;Pac;DaySum;Status;Pdc1;Pdc2;Udc1;Udc2;Temp;WR;Pac;DaySum;Status;Pdc1;Pdc2;Udc1;Udc2;Temp;WR;Pac;DaySum;Status;Pdc1;Udc;Temp;WR;Pac;DaySum;Status;Pdc1;Udc;Temp;WR;Pac;DaySum;Status;Pdc1;Udc;Temp
02.11.18;23:55:00;1;305;10603;0;2;0;4368;0;0;0;0;3;0;2715;0;0;0;0;4;0;3701;0;0;0;0;5;0;9096;0;0;0;0;0;0;6;0;6795;0;0;0;0;0;0;7;0;4630;0;0;0;0;8;0;4705;0;0;0;0;9;0;2509;0;0;0;0
02.11.18;23:50:00;1;322;10577;0;2;0;4368;0;0;0;0;3;0;2715;0;0;0;0;4;0;3701;0;0;0;0;5;0;9096;0;0;0;0;0;0;6;0;6795;0;0;0;0;0;0;7;0;4630;0;0;0;0;8;0;4705;0;0;0;0;9;0;2509;0;0;0;0
02.11.18;23:45:00;1;323;10550;0;2;0;4368;0;0;0;0;3;0;2715;0;0;0;0;4;0;3701;0;0;0;0;5;0;9096;0;0;0;0;0;0;6;0;6795;0;0;0;0;0;0;7;0;4630;0;0;0;0;8;0;4705;0;0;0;0;9;0;2509;0;0;0;0
02.11.18;23:40:00;1;342;10523;0;2;0;4368;0;0;0;0;3;0;2715;0;0;0;0;4;0;3701;0;0;0;0;5;0;9096;0;0;0;0;0;0;6;0;6795;0;0;0;0;0;0;7;0;4630;0;0;0;0;8;0;4705;0;0;0;0;9;0;2509;0;0;0;0
02.11.18;23:35:00;1;217;10500;0;2;0;4368;0;0;0;0;3;0;2715;0;0;0;0;4;0;3701;0;0;0;0;5;0;9096;0;0;0;0;0;0;6;0;6795;0;0;0;0;0;0;7;0;4630;0;0;0;0;8;0;4705;0;0;0;0;9;0;2509;0;0;0;0
02.11.18;23:30:00;1;224;10482;0;2;0;4368;0;0;0;0;3;0;2715;0;0;0;0;4;0;3701;0;0;0;0;5;0;9096;0;0;0;0;0;0;6;0;6795;0;0;0;0;0;0;7;0;4630;0;0;0;0;8;0;4705;0;0;0;0;9;0;2509;0;0;0;0
02.11.18;23:25:00;1;254;10463;0;2;0;4368;0;0;0;0;3;0;2715;0;0;0;0;4;0;3701;0;0;0;0;5;0;9096;0;0;0;0;0;0;6;0;6795;0;0;0;0;0;0;7;0;4630;0;0;0;0;8;0;4705;0;0;0;0;9;0;2509;0;0;0;0
02.11.18;23:20:00;1;239;10442;0;2;0;4368;0;0;0;0;3;0;2715;0;0;0;0;4;0;3701;0;0;0;0;5;0;9096;0;0;0;0;0;0;6;0;6795;0;0;0;0;0;0;7;0;4630;0;0;0;0;8;0;4705;0;0;0;0;9;0;2509;0;0;0;0
02.11.18;23:15:00;1;237;10422;0;2;0;4368;0;0;0;0;3;0;2715;0;0;0;0;4;0;3701;0;0;0;0;5;0;9096;0;0;0;0;0;0;6;0;6795;0;0;0;0;0;0;7;0;4630;0;0;0;0;8;0;4705;0;0;0;0;9;0;2509;0;0;0;0
02.11.18;23:10:00;1;237;10402;0;2;0;4368;0;0;0;0;3;0;2715;0;0;0;0;4;0;3701;0;0;0;0;5;0;9096;0;0;0;0;0;0;6;0;6795;0;0;0;0;0;0;7;0;4630;0;0;0;0;8;0;4705;0;0;0;0;9;0;2509;0;0;0;0
02.11.18;23:05:00;1;251;10382;0;2;0;4368;0;0;0;0;3;0;2715;0;0;0;0;4;0;3701;0;0;0;0;5;0;9096;0;0;0;0;0;0;6;0;6795;0;0;0;0;0;0;7;0;4630;0;0;0;0;8;0;4705;0;0;0;0;9;0;2509;0;0;0;0
02.11.18;23:00:00;1;280;10361;0;2;0;4368;0;0;0;0;3;0;2715;0;0;0;0;4;0;3701;0;0;0;0;5;0;9096;0;0;0;0;0;0;6;0;6795;0;0;0;0;0;0;7;0;4630;0;0;0;0;8;0;4705;0;0;0;0;9;0;2509;0;0;0;0
02.11.18;22:55:00;1;281;10337;0;2;0;4368;0;0;0;0;3;0;2715;0;0;0;0;4;0;3701;0;0;0;0;5;0;9096;2;0;0;0;0;0;6;0;6795;2;0;0;0;0;0;7;0;4630;0;0;0;0;8;0;4705;0;0;0;0;9;0;2509;0;0;0;0
02.11.18;22:50:00;1;371;10314;0;2;0;4368;0;0;0;0;3;0;2715;0;0;0;0;4;0;3701;0;0;0;0;5;0;9096;2;0;0;0;0;0;6;0;6795;2;0;0;0;0;0;7;0;4630;0;0;0;0;8;0;4705;0;0;0;0;9;0;2509;0;0;0;0
02.11.18;22:45:00;1;333;10282;0;2;0;4368;0;0;0;0;3;0;2715;0;0;0;0;4;0;3701;0;0;0;0;5;0;9096;2;0;0;0;0;0;6;0;6795;2;0;0;0;0;0;7;0;4630;0;0;0;0;8;0;4705;0;0;0;0;9;0;2509;0;0;0;0
02.11.18;22:40:00;1;279;10255;0;2;0;4368;0;0;0;0;3;0;2715;0;0;0;0;4;0;3701;0;0;0;0;5;0;9096;2;0;0;0;0;0;6;0;6795;2;0;0;0;0;0;7;0;4630;0;0;0;0;8;0;4705;0;0;0;0;9;0;2509;0;0;0;0
02.11.18;22:35:00;1;279;10232;0;2;0;4368;0;0;0;0;3;0;2715;0;0;0;0;4;0;3701;0;0;0;0;5;0;9096;2;0;0;0;0;0;6;0;6795;2;0;0;0;0;0;7;0;4630;0;0;0;0;8;0;4705;0;0;0;0;9;0;2509;0;0;0;0
02.11.18;22:30:00;1;304;10208;0;2;0;4368;0;0;0;0;3;0;2715;0;0;0;0;4;0;3701;0;0;0;0;5;0;9096;2;0;0;0;0;0;6;0;6795;2;0;0;0;0;0;7;0;4630;0;0;0;0;8;0;4705;0;0;0;0;9;0;2509;0;0;0;0
02.11.18;22:25:00;1;253;10183;0;2;0;4368;0;0;0;0;3;0;2715;0;0;0;0;4;0;3701;0;0;0;0;5;0;9096;2;0;0;0;0;0;6;0;6795;2;0;0;0;0;0;7;0;4630;0;0;0;0;8;0;4705;0;0;0;0;9;0;2509;0;0;0;0
02.11.18;22:20:00;1;252;10162;0;2;0;4368;0;0;0;0;3;0;2715;0;0;0;0;4;0;3701;0;0;0;0;5;0;9096;2;0;0;0;0;0;6;0;6795;2;0;0;0;0;0;7;0;4630;0;0;0;0;8;0;4705;0;0;0;0;9;0;2509;0;0;0;0
02.11.18;22:15:00;1;222;10141;0;2;0;4368;0;0;0;0;3;0;2715;0;0;0;0;4;0;3701;0;0;0;0;5;0;9096;2;0;0;0;0;0;6;0;6795;2;0;0;0;0;0;7;0;4630;0;0;0;0;8;0;4705;0;0;0;0;9;0;2509;0;0;0;0
02.11.18;22:10:00;1;248;10122;0;2;0;4368;0;0;0;0;3;0;2715;0;0;0;0;4;0;3701;0;0;0;0;5;0;9096;2;0;0;0;0;0;6;0;6795;2;0;0;0;0;0;7;0;4630;0;0;0;0;8;0;4705;0;0;0;0;9;0;2509;0;0;0;0
02.11.18;22:05:00;1;248;10101;0;2;0;4368;0;0;0;0;3;0;2715;0;0;0;0;4;0;3701;0;0;0;0;5;0;9096;2;0;0;0;0;0;6;0;6795;2;0;0;0;0;0;7;0;4630;0;0;0;0;8;0;4705;0;0;0;0;9;0;2509;0;0;0;0
02.11.18;22:00:00;1;312;10080;0;2;0;4368;0;0;0;0;3;0;2715;0;0;0;0;4;0;3701;0;0;0;0;5;0;9096;2;0;0;0;0;0;6;0;6795;2;0;0;0;0;0;7;0;4630;0;0;0;0;8;0;4705;0;0;0;0;9;0;2509;0;0;0;0
02.11.18;21:55:00;1;284;10054;0;2;0;4368;0;0;0;0;3;0;2715;0;0;0;0;4;0;3701;0;0;0;0;5;0;9096;2;0;0;0;0;0;6;0;6795;2;0;0;0;0;0;7;0;4630;0;0;0;0;8;0;4705;0;0;0;0;9;0;2509;0;0;0;0
02.11.18;21:50:00;1;273;10030;0;2;0;4368;0;0;0;0;3;0;2715;0;0;0;0;4;0;3701;0;0;0;0;5;0;9096;2;0;0;0;0;0;6;0;6795;2;0;0;0;0;0;7;0;4630;0;0;0;0;8;0;4705;0;0;0;0;9;0;2509;0;0;0;0
02.11.18;21:45:00;1;274;10008;0;2;0;4368;0;0;0;0;3;0;2715;0;0;0;0;4;0;3701;0;0;0;0;5;0;9096;2;0;0;0;0;0;6;0;6795;2;0;0;0;0;0;7;0;4630;0;0;0;0;8;0;4705;0;0;0;0;9;0;2509;0;0;0;0
02.11.18;21:40:00;1;275;9985;0;2;0;4368;0;0;0;0;3;0;2715;0;0;0;0;4;0;3701;0;0;0;0;5;0;9096;2;0;0;0;0;0;6;0;6795;2;0;0;0;0;0;7;0;4630;0;0;0;0;8;0;4705;0;0;0;0;9;0;2509;0;0;0;0
02.11.18;21:35:00;1;274;9962;0;2;0;4368;0;0;0;0;3;0;2715;0;0;0;0;4;0;3701;0;0;0;0;5;0;9096;2;0;0;0;0;0;6;0;6795;2;0;0;0;0;0;7;0;4630;0;0;0;0;8;0;4705;0;0;0;0;9;0;2509;0;0;0;0
02.11.18;21:30:00;1;273;9939;0;2;0;4368;0;0;0;0;3;0;2715;0;0;0;0;4;0;3701;0;0;0;0;5;0;9096;2;0;0;0;0;0;6;0;6795;2;0;0;0;0;0;7;0;4630;0;0;0;0;8;0;4705;0;0;0;0;9;0;2509;0;0;0;0
02.11.18;21:25:00;1;209;9916;0;2;0;4368;0;0;0;0;3;0;2715;0;0;0;0;4;0;3701;0;0;0;0;5;0;9096;2;0;0;0;0;0;6;0;6795;2;0;0;0;0;0;7;0;4630;0;0;0;0;8;0;4705;0;0;0;0;9;0;2509;0;0;0;0
02.11.18;21:20:00;1;245;9899;0;2;0;4368;0;0;0;0;3;0;2715;0;0;0;0;4;0;3701;0;0;0;0;5;0;9096;2;0;0;0;0;0;6;0;6795;2;0;0;0;0;0;7;0;4630;0;0;0;0;8;0;4705;0;0;0;0;9;0;2509;0;0;0;0
02.11.18;21:15:00;1;251;9878;0;2;0;4368;0;0;0;0;3;0;2715;0;0;0;0;4;0;3701;0;0;0;0;5;0;9096;2;0;0;0;0;0;6;0;6795;2;0;0;0;0;0;7;0;4630;0;0;0;0;8;0;4705;0;0;0;0;9;0;2509;0;0;0;0
02.11.18;21:10:00;1;253;9857;0;2;0;4368;0;0;0;0;3;0;2715;0;0;0;0;4;0;3701;0;0;0;0;5;0;9096;2;0;0;0;0;0;6;0;6795;2;0;0;0;0;0;7;0;4630;0;0;0;0;8;0;4705;0;0;0;0;9;0;2509;0;0;0;0
02.11.18;21:05:00;1;215;9836;0;2;0;4368;0;0;0;0;3;0;2715;0;0;0;0;4;0;3701;0;0;0;0;5;0;9096;2;0;0;0;0;0;6;0;6795;2;0;0;0;0;0;7;0;4630;0;0;0;0;8;0;4705;0;0;0;0;9;0;2509;0;0;0;0
02.11.18;21:00:00;1;209;9818;0;2;0;4368;0;0;0;0;3;0;2715;0;0;0;0;4;0;3701;0;0;0;0;5;0;9096;2;0;0;0;0;0;6;0;6795;2;0;0;0;0;0;7;0;4630;0;0;0;0;8;0;4705;0;0;0;0;9;0;2509;0;0;0;0
02.11.18;20:55:00;1;208;9800;0;2;0;4368;0;0;0;0;3;0;2715;0;0;0;0;4;0;3701;0;0;0;0;5;0;9096;2;0;0;0;0;0;6;0;6795;2;0;0;0;0;0;7;0;4630;0;0;0;0;8;0;4705;0;0;0;0;9;0;2509;0;0;0;0
02.11.18;20:50:00;1;209;9783;0;2;0;4368;0;0;0;0;3;0;2715;0;0;0;0;4;0;3701;0;0;0;0;5;0;9096;2;0;0;0;0;0;6;0;6795;2;0;0;0;0;0;7;0;4630;0;0;0;0;8;0;4705;0;0;0;0;9;0;2509;0;0;0;0
02.11.18;20:45:00;1;212;9765;0;2;0;4368;0;0;0;0;3;0;2715;0;0;0;0;4;0;3701;0;0;0;0;5;0;9096;2;0;0;0;0;0;6;0;6795;2;0;0;0;0;0;7;0;4630;0;0;0;0;8;0;4705;0;0;0;0;9;0;2509;0;0;0;0
02.11.18;20:40:00;1;211;9747;0;2;0;4368;0;0;0;0;3;0;2715;0;0;0;0;4;0;3701;0;0;0;0;5;0;9096;2;0;0;0;0;0;6;0;6795;2;0;0;0;0;0;7;0;4630;0;0;0;0;8;0;4705;0;0;0;0;9;0;2509;0;0;0;0
02.11.18;20:35:00;1;212;9730;0;2;0;4368;0;0;0;0;3;0;2715;0;0;0;0;4;0;3701;0;0;0;0;5;0;9096;2;0;0;0;0;0;6;0;6795;2;0;0;0;0;0;7;0;4630;0;0;0;0;8;0;4705;0;0;0;0;9;0;2509;0;0;0;0
02.11.18;20:30:00;1;235;9712;0;2;0;4368;0;0;0;0;3;0;2715;0;0;0;0;4;0;3701;0;0;0;0;5;0;9096;2;0;0;0;0;0;6;0;6795;2;0;0;0;0;0;7;0;4630;0;0;0;0;8;0;4705;0;0;0;0;9;0;2509;0;0;0;0
02.11.18;20:25:00;1;253;9692;0;2;0;4368;0;0;0;0;3;0;2715;0;0;0;0;4;0;3701;0;0;0;0;5;0;9096;2;0;0;0;0;0;6;0;6795;2;0;0;0;0;0;7;0;4630;0;0;0;0;8;0;4705;0;0;0;0;9;0;2509;0;0;0;0
02.11.18;20:20:00;1;255;9671;0;2;0;4368;0;0;0;0;3;0;2715;0;0;0;0;4;0;3701;0;0;0;0;5;0;9096;2;0;0;0;0;0;6;0;6795;2;0;0;0;0;0;7;0;4630;0;0;0;0;8;0;4705;0;0;0;0;9;0;2509;0;0;0;0
02.11.18;20:15:00;1;248;9650;0;2;0;4368;0;0;0;0;3;0;2715;0;0;0;0;4;0;3701;0;0;0;0;5;0;9096;2;0;0;0;0;0;6;0;6795;2;0;0;0;0;0;7;0;4630;0;0;0;0;8;0;4705;0;0;0;0;9;0;2509;0;0;0;0
02.11.18;20:10:00;1;210;9630;0;2;0;4368;0;0;0;0;3;0;2715;0;0;0;0;4;0;3701;0;0;0;0;5;0;9096;2;0;0;0;0;0;6;0;6795;2;0;0;0;0;0;7;0;4630;0;0;0;0;8;0;4705;0;0;0;0;9;0;2509;0;0;0;0
02.11.18;20:05:00;1;211;9612;0;2;0;4368;0;0;0;0;3;0;2715;0;0;0;0;4;0;3701;0;0;0;0;5;0;9096;2;0;0;0;0;0;6;0;6795;2;0;0;0;0;0;7;0;4630;0;0;0;0;8;0;4705;0;0;0;0;9;0;2509;0;0;0;0
02.11.18;20:00:00;1;211;9594;0;2;0;4368;0;0;0;0;3;0;2715;0;0;0;0;4;0;3701;0;0;0;0;5;0;9096;2;0;0;0;0;0;6;0;6795;2;0;0;0;0;0;7;0;4630;0;0;0;0;8;0;4705;0;0;0;0;9;0;2509;0;0;0;0
02.11.18;19:55:00;1;218;9577;0;2;0;4368;0;0;0;0;3;0;2715;0;0;0;0;4;0;3701;0;0;0;0;5;0;9096;2;0;0;0;0;0;6;0;6795;2;0;0;0;0;0;7;0;4630;0;0;0;0;8;0;4705;0;0;0;0;9;0;2509;0;0;0;0
02.11.18;19:50:00;1;273;9558;0;2;0;4368;0;0;0;0;3;0;2715;0;0;0;0;4;0;3701;0;0;0;0;5;0;9096;2;0;0;0;0;0;6;0;6795;2;0;0;0;0;0;7;0;4630;0;0;0;0;8;0;4705;0;0;0;0;9;0;2509;0;0;0;0
02.11.18;19:45:00;1;273;9535;0;2;0;4368;0;0;0;0;3;0;2715;0;0;0;0;4;0;3701;0;0;0;0;5;0;9096;2;0;0;0;0;0;6;0;6795;2;0;0;0;0;0;7;0;4630;0;0;0;0;8;0;4705;0;0;0;0;9;0;2509;0;0;0;0
02.11.18;19:40:00;1;285;9513;0;2;0;4368;0;0;0;0;3;0;2715;0;0;0;0;4;0;3701;0;0;0;0;5;0;9096;2;0;0;0;0;0;6;0;6795;2;0;0;0;0;0;7;0;4630;0;0;0;0;8;0;4705;0;0;0;0;9;0;2509;0;0;0;0
02.11.18;19:35:00;1;316;9488;0;2;0;4368;0;0;0;0;3;0;2715;0;0;0;0;4;0;3701;0;0;0;0;5;0;9096;2;0;0;0;0;0;6;0;6795;2;0;0;0;0;0;7;0;4630;0;0;0;0;8;0;4705;0;0;0;0;9;0;2509;0;0;0;0
02.11.18;19:30:00;1;318;9462;0;2;0;4368;0;0;0;0;3;0;2715;0;0;0;0;4;0;3701;0;0;0;0;5;0;9096;2;0;0;0;0;0;6;0;6795;2;0;0;0;0;0;7;0;4630;0;0;0;0;8;0;4705;0;0;0;0;9;0;2509;0;0;0;0
02.11.18;19:25:00;1;314;9435;0;2;0;4368;0;0;0;0;3;0;2715;0;0;0;0;4;0;3701;0;0;0;0;5;0;9096;2;0;0;0;0;0;6;0;6795;2;0;0;0;0;0;7;0;4630;0;0;0;0;8;0;4705;0;0;0;0;9;0;2509;0;0;0;0
02.11.18;19:20:00;1;282;9409;0;2;0;4368;0;0;0;0;3;0;2715;0;0;0;0;4;0;3701;0;0;0;0;5;0;9096;2;0;0;0;0;0;6;0;6795;2;0;0;0;0;0;7;0;4630;0;0;0;0;8;0;4705;0;0;0;0;9;0;2509;0;0;0;0
02.11.18;19:15:00;1;215;9385;0;2;0;4368;0;0;0;0;3;0;2715;0;0;0;0;4;0;3701;0;0;0;0;5;0;9096;2;0;0;0;0;0;6;0;6795;2;0;0;0;0;0;7;0;4630;0;0;0;0;8;0;4705;0;0;0;0;9;0;2509;0;0;0;0
02.11.18;19:10:00;1;209;9368;0;2;0;4368;0;0;0;0;3;0;2715;0;0;0;0;4;0;3701;0;0;0;0;5;0;9096;2;0;0;0;0;0;6;0;6795;2;0;0;0;0;0;7;0;4630;0;0;0;0;8;0;4705;0;0;0;0;9;0;2509;0;0;0;0
02.11.18;19:05:00;1;212;9350;0;2;0;4368;0;0;0;0;3;0;2715;0;0;0;0;4;0;3701;0;0;0;0;5;0;9096;2;0;0;0;0;0;6;0;6795;2;0;0;0;0;0;7;0;4630;0;0;0;0;8;0;4705;0;0;0;0;9;0;2509;0;0;0;0
02.11.18;19:00:00;1;212;9333;0;2;0;4368;0;0;0;0;3;0;2715;0;0;0;0;4;0;3701;0;0;0;0;5;0;9096;2;0;0;0;0;0;6;0;6795;2;0;0;0;0;0;7;0;4630;0;0;0;0;8;0;4705;0;0;0;0;9;0;2509;0;0;0;0
02.11.18;18:55:00;1;228;9315;0;2;0;4368;0;0;0;0;3;0;2715;0;0;0;0;4;0;3701;0;0;0;0;5;0;9096;2;0;0;0;0;0;6;0;6795;2;0;0;0;0;0;7;0;4630;0;0;0;0;8;0;4705;0;0;0;0;9;0;2509;0;0;0;0
02.11.18;18:50:00;1;269;9296;0;2;0;4368;0;0;0;0;3;0;2715;0;0;0;0;4;0;3701;0;0;0;0;5;0;9096;2;0;0;0;0;0;6;0;6795;2;0;0;0;0;0;7;0;4630;0;0;0;0;8;0;4705;0;0;0;0;9;0;2509;0;0;0;0
02.11.18;18:45:00;1;1255;9273;0;2;0;4368;0;0;0;0;3;0;2715;0;0;0;0;4;0;3701;0;0;0;0;5;0;9096;2;0;0;0;0;0;6;0;6795;2;0;0;0;0;0;7;0;4630;0;0;0;0;8;0;4705;0;0;0;0;9;0;2509;0;0;0;0
02.11.18;18:40:00;1;306;9165;0;2;0;4368;0;0;0;0;3;0;2715;0;0;0;0;4;0;3701;0;0;0;0;5;0;9096;2;0;0;0;0;0;6;0;6795;2;0;0;0;0;0;7;0;4630;0;0;0;0;8;0;4705;0;0;0;0;9;0;2509;0;0;0;0
02.11.18;18:35:00;1;334;9139;0;2;0;4368;0;0;0;0;3;0;2715;0;0;0;0;4;0;3701;0;0;0;0;5;0;9096;2;0;0;0;0;0;6;0;6795;2;0;0;0;0;0;7;0;4630;0;0;0;0;8;0;4705;0;0;0;0;9;0;2509;0;0;0;0
02.11.18;18:30:00;1;294;9111;0;2;0;4368;0;0;0;0;3;0;2715;0;0;0;0;4;0;3701;0;0;0;0;5;0;9096;2;0;0;0;0;0;6;0;6795;2;0;0;0;0;0;7;0;4630;0;0;0;0;8;0;4705;0;0;0;0;9;0;2509;0;0;0;0
02.11.18;18:25:00;1;252;9087;0;2;0;4368;0;0;0;0;3;0;2715;0;0;0;0;4;0;3701;0;0;0;0;5;0;9096;2;0;0;0;0;0;6;0;6795;2;0;0;0;0;0;7;0;4630;0;0;0;0;8;0;4705;0;0;0;0;9;0;2509;0;0;0;0
02.11.18;18:20:00;1;241;9066;0;2;0;4368;0;0;0;0;3;0;2715;0;0;0;0;4;0;3701;0;0;0;0;5;0;9096;2;0;0;0;0;0;6;0;6795;2;0;0;0;0;0;7;0;4630;0;0;0;0;8;0;4705;0;0;0;0;9;0;2509;0;0;0;0
02.11.18;18:15:00;1;248;9046;0;2;0;4368;0;0;0;0;3;0;2715;0;0;0;0;4;0;3701;0;0;0;0;5;0;9096;2;0;0;0;0;0;6;0;6795;2;0;0;0;0;0;7;0;4630;0;0;0;0;8;0;4705;0;0;0;0;9;0;2509;0;0;0;0
02.11.18;18:10:00;1;272;9025;0;2;0;4368;0;0;0;0;3;0;2715;0;0;0;0;4;0;3701;0;0;0;0;5;0;9096;2;0;0;0;0;0;6;0;6795;2;0;0;0;0;0;7;0;4630;0;0;0;0;8;0;4705;0;0;0;0;9;0;2509;0;0;0;0
02.11.18;18:05:00;1;298;9002;0;2;0;4368;0;0;0;0;3;0;2715;0;0;0;0;4;0;3701;0;0;0;0;5;0;9096;2;0;0;0;0;0;6;0;6795;2;0;0;0;0;0;7;0;4630;0;0;0;0;8;0;4705;0;0;0;0;9;0;2509;0;0;0;0
02.11.18;18:00:00;1;394;8977;0;2;0;4368;0;0;0;0;3;0;2715;0;0;0;0;4;0;3701;0;0;0;0;5;0;9096;2;0;0;0;0;0;6;0;6795;2;0;0;0;0;0;7;0;4630;0;0;0;0;8;0;4705;0;0;0;0;9;0;2509;0;0;0;0
02.11.18;17:55:00;1;435;8944;0;2;0;4368;0;0;0;0;3;0;2715;0;0;0;0;4;0;3701;0;0;0;0;5;0;9096;2;0;0;0;0;0;6;0;6795;2;0;0;0;0;0;7;0;4630;0;0;0;0;8;0;4705;0;0;0;0;9;0;2509;0;0;0;0
02.11.18;17:50:00;1;432;8907;0;2;0;4368;0;0;0;0;3;0;2715;0;0;0;0;4;0;3701;0;0;0;0;5;0;9096;2;0;0;0;0;0;6;0;6795;2;0;0;0;0;0;7;0;4630;0;0;0;0;8;0;4705;0;0;0;0;9;0;2509;0;0;0;0
02.11.18;17:45:00;1;566;8858;0;2;0;4368;0;0;0;0;3;0;2715;0;0;0;0;4;0;3701;0;0;0;0;5;0;9096;2;0;0;0;0;0;6;0;6795;2;0;0;0;0;0;7;0;4630;0;0;0;0;8;0;4705;0;0;0;0;9;0;2509;0;0;0;0
02.11.18;17:40:00;1;371;8821;0;2;0;4368;0;0;0;0;3;0;2715;0;0;0;0;4;0;3701;0;0;0;0;5;0;9096;2;0;0;0;0;0;6;0;6795;2;0;0;0;0;0;7;0;4630;0;0;0;0;8;0;4705;0;0;0;0;9;0;2509;0;0;0;0
02.11.18;17:35:00;1;401;8790;0;2;0;4368;0;0;0;0;3;0;2715;0;0;0;0;4;0;3701;0;0;0;0;5;0;9096;2;0;0;0;0;0;6;0;6795;2;0;0;0;0;0;7;0;4630;0;0;0;0;8;0;4705;0;0;0;0;9;0;2509;0;0;0;0
02.11.18;17:30:00;1;922;8754;0;2;0;4368;0;0;0;0;3;0;2715;0;0;0;0;4;0;3701;0;0;0;0;5;0;9096;2;0;0;0;0;0;6;0;6795;2;0;0;0;0;0;7;0;4630;0;0;0;0;8;0;4705;0;0;0;0;9;0;2509;0;0;0;0
02.11.18;17:25:00;1;675;8672;0;2;0;4368;0;0;0;0;3;0;2715;0;0;0;0;4;0;3701;0;0;0;0;5;0;9096;2;0;0;0;0;0;6;0;6795;2;0;0;0;0;0;7;0;4630;0;0;0;0;8;0;4705;0;0;0;0;9;0;2509;0;0;0;0
02.11.18;17:20:00;1;789;8609;0;2;0;4368;0;0;0;0;3;0;2715;0;0;0;0;4;0;3701;0;0;0;0;5;0;9096;2;0;0;0;0;0;6;0;6795;2;0;0;0;0;0;7;0;4630;0;0;0;0;8;0;4705;0;0;0;0;9;0;2509;0;0;0;0
02.11.18;17:15:00;1;344;8548;0;2;0;4368;0;0;0;0;3;0;2715;0;0;0;0;4;0;3701;0;0;0;0;5;0;9096;2;0;0;0;0;0;6;0;6795;2;0;0;0;0;0;7;0;4630;0;0;0;0;8;0;4705;0;0;0;0;9;0;2509;0;0;0;0
02.11.18;17:10:00;1;370;8518;0;2;0;4368;0;0;0;0;3;0;2715;0;0;0;0;4;0;3701;0;0;0;0;5;0;9096;2;0;0;0;0;0;6;0;6795;2;0;0;0;0;0;7;0;4630;0;0;0;0;8;0;4705;0;0;0;0;9;0;2509;0;0;0;0
02.11.18;17:05:00;1;466;8488;0;2;0;4368;0;0;0;0;3;0;2715;0;0;35;2;4;0;3701;0;0;0;0;5;0;9096;2;0;0;0;0;0;6;0;6795;2;0;0;0;0;0;7;0;4630;0;0;0;0;8;0;4705;0;0;0;0;9;0;2509;0;0;0;0
02.11.18;17:00:00;1;414;8452;0;2;0;4368;0;0;129;8;3;0;2715;6;0;283;20;4;0;3701;0;0;0;0;5;0;9096;2;0;0;0;0;0;6;0;6795;2;0;0;0;0;0;7;0;4630;0;0;0;0;8;0;4705;0;0;0;0;9;0;2509;0;0;0;0
02.11.18;16:55:00;1;414;8417;0;2;0;4368;6;0;292;17;3;0;2715;6;0;329;20;4;0;3701;2;0;78;16;5;0;9096;2;0;0;0;0;0;6;0;6795;0;0;0;0;0;0;7;0;4630;0;0;0;0;8;0;4705;0;0;0;0;9;0;2509;0;0;0;0
02.11.18;16:50:00;1;431;8381;0;2;0;4368;6;0;318;17;3;0;2715;6;0;386;20;4;0;3701;1;0;105;16;5;0;9096;2;2;16;215;214;21;6;0;6795;2;2;0;71;126;10;7;0;4630;0;0;0;0;8;0;4705;0;0;0;0;9;0;2509;0;0;100;6
02.11.18;16:45:00;1;393;8347;0;2;0;4368;6;0;351;17;3;0;2715;6;1;426;20;4;0;3701;1;0;148;16;5;0;9096;23;0;0;375;402;27;6;0;6795;23;4;4;459;273;26;7;0;4630;6;0;289;20;8;0;4705;6;0;293;19;9;0;2509;6;0;310;15
02.11.18;16:40:00;1;427;8316;0;2;0;4368;6;0;369;18;3;0;2715;6;2;443;20;4;0;3701;1;0;178;17;5;0;9096;26;0;1;398;479;27;6;0;6795;23;7;1;253;460;26;7;0;4630;6;0;346;20;8;0;4705;6;0;352;19;9;0;2509;6;0;374;16
02.11.18;16:35:00;1;368;8283;0;2;0;4368;6;0;383;18;3;1;2715;6;3;459;20;4;0;3701;1;0;203;17;5;8;9096;26;0;1;400;625;27;6;0;6795;23;10;0;243;551;27;7;0;4630;6;0;388;20;8;0;4705;6;0;393;20;9;0;2509;6;0;414;16
02.11.18;16:30:00;1;362;8252;0;2;0;4368;6;0;396;18;3;0;2715;6;0;504;21;4;0;3701;3;0;204;17;5;12;9095;26;0;5;412;654;27;6;0;6795;23;8;2;503;568;27;7;0;4630;6;2;411;20;8;0;4705;6;1;419;20;9;0;2509;6;0;450;16
02.11.18;16:25:00;1;380;8221;0;2;0;4368;6;0;407;18;3;2;2715;4;9;473;21;4;0;3701;3;0;216;18;5;80;9094;4;8;22;379;606;28;6;55;6795;4;27;30;467;442;28;7;1;4630;6;1;441;21;8;0;4705;6;1;444;20;9;1;2509;6;1;470;16
02.11.18;16:20:00;1;371;8190;0;2;8;4368;6;19;389;19;3;2;2715;3;7;502;21;4;0;3701;3;0;225;18;5;100;9087;4;22;31;379;606;28;6;65;6790;4;32;31;467;441;28;7;2;4630;6;10;428;21;8;0;4705;6;5;436;20;9;0;2509;6;0;525;16
02.11.18;16:15:00;1;918;8159;0;2;6;4368;6;10;406;19;3;3;2715;6;8;500;21;4;2;3701;3;2;200;18;5;116;9078;4;31;38;379;606;28;6;78;6784;4;34;37;467;441;28;7;0;4630;6;0;483;21;8;0;4705;6;0;485;21;9;4;2509;4;9;480;16
02.11.18;16:10:00;1;409;8092;0;2;40;4367;6;61;369;19;3;4;2715;6;9;513;21;4;11;3701;3;11;199;18;5;152;9069;4;46;55;379;606;28;6;102;6778;4;45;52;467;442;28;7;1;4630;4;8;469;21;8;2;4705;4;8;470;21;9;3;2508;6;6;518;17
02.11.18;16:05:00;1;1323;8050;0;2;79;4364;4;104;354;19;3;6;2714;6;11;532;21;4;42;3700;3;43;198;18;5;212;9055;4;90;87;379;606;28;6;143;6769;4;75;77;467;441;28;7;57;4629;4;80;365;21;8;49;4705;4;84;417;21;9;10;2508;6;16;509;17
02.11.18;16:00:00;1;886;7932;0;2;102;4358;4;128;356;19;3;68;2714;6;72;466;22;4;56;3696;3;58;198;18;5;260;9037;4;108;108;379;606;28;6;172;6757;4;78;77;467;441;28;7;83;4625;4;113;396;21;8;73;4700;4;111;431;21;9;9;2507;6;12;542;17
02.11.18;15:55:00;1;1657;7872;0;2;106;4349;4;133;361;19;3;57;2709;4;93;455;22;4;65;3692;3;68;198;18;5;269;9015;4;113;112;379;606;28;6;179;6742;4;100;97;467;442;28;7;93;4618;4;126;427;21;8;86;4694;4;125;435;21;9;8;2507;6;12;550;17
02.11.18;15:50:00;1;2413;7718;0;2;119;4340;4;148;363;19;3;65;2704;4;102;450;22;4;78;3686;3;82;199;18;5;287;8993;4;123;118;379;606;28;6;191;6727;4;104;99;467;442;28;7;98;4610;4;127;410;22;8;95;4687;4;130;414;21;9;9;2506;6;13;546;17
02.11.18;15:45:00;1;2312;7523;0;2;181;4330;4;213;371;19;3;108;2699;4;142;479;22;4;130;3680;5;136;223;18;5;392;8968;4;180;170;380;603;28;6;257;6711;4;137;136;466;441;28;7;155;4602;4;185;423;22;8;136;4678;0;164;345;17;9;83;2505;4;110;477;18
02.11.18;15:40:00;1;2312;7329;0;2;224;4315;4;260;387;19;3;137;2690;4;174;480;22;4;179;3669;5;186;223;18;5;489;8935;4;230;212;394;628;28;6;319;6689;4;193;193;467;442;28;7;215;4589;4;251;428;22;8;220;4667;4;259;441;21;9;115;2498;4;146;505;18
02.11.18;15:35:00;1;2341;7135;0;2;230;4297;4;264;384;19;3;139;2678;4;177;498;21;4;182;3654;5;189;225;18;5;511;8894;4;251;224;394;622;28;6;328;6663;4;146;141;467;441;28;7;231;4571;4;264;452;22;8;234;4648;4;269;458;21;9;124;2489;4;153;502;18
02.11.18;15:30:00;1;441;6945;0;2;206;4278;4;239;378;19;3;122;2667;4;160;504;21;4;165;3639;5;172;224;19;5;471;8852;4;215;202;398;637;28;6;308;6635;4;159;155;467;442;28;7;202;4552;4;243;434;22;8;211;4629;4;246;439;21;9;113;2479;4;142;505;18
02.11.18;15:25:00;1;426;6909;0;2;210;4260;4;243;381;19;3;123;2656;4;162;502;21;4;159;3625;5;165;224;19;5;482;8813;4;227;210;395;614;28;6;313;6610;4;166;158;467;441;28;7;210;4536;4;236;431;22;8;209;4611;4;244;436;21;9;110;2469;4;139;492;18
02.11.18;15:20:00;1;365;6874;0;2;251;4243;4;284;379;19;3;151;2646;4;192;502;21;4;203;3612;5;211;226;19;5;548;8772;4;268;242;391;627;28;6;354;6583;4;172;172;467;441;28;7;251;4518;4;278;447;22;8;248;4594;4;289;446;21;9;131;2460;4;161;502;18
02.11.18;15:15:00;1;383;6843;0;2;251;4222;4;286;376;19;3;153;2634;4;191;504;21;4;207;3595;5;216;229;19;5;555;8726;4;271;243;392;611;28;6;365;6553;4;203;198;467;442;28;7;261;4497;4;300;464;22;8;270;4573;4;307;462;21;9;142;2449;4;174;509;18
02.11.18;15:10:00;1;389;6810;0;2;213;4201;4;243;371;19;3;123;2621;4;162;506;21;4;163;3578;5;169;222;19;5;478;8680;4;227;207;399;619;28;6;308;6523;4;159;149;467;442;28;7;211;4475;4;242;441;22;8;213;4551;4;249;439;21;9;112;2437;4;141;510;18
02.11.18;15:05:00;1;346;6777;0;2;273;4183;4;307;384;19;3;165;2610;4;202;492;21;4;218;3564;5;227;228;19;5;573;8640;4;277;248;399;619;28;6;371;6497;4;187;180;467;441;28;7;260;4457;4;296;464;22;8;265;4533;4;300;444;21;9;139;2428;4;169;508;18
02.11.18;15:00:00;1;328;6748;0;2;252;4161;4;287;379;19;3;150;2597;4;190;507;21;4;202;3546;5;211;227;19;5;533;8592;4;261;231;394;598;28;6;353;6466;4;179;176;467;441;28;7;255;4436;4;302;466;22;8;267;4511;4;305;465;22;9;144;2417;4;173;518;18
02.11.18;14:55:00;1;328;6721;0;2;181;4139;4;212;365;19;3;104;2584;4;142;503;21;4;133;3529;5;139;220;19;5;404;8548;4;193;176;379;606;28;6;271;6438;4;153;151;467;441;28;7;170;4415;4;210;452;22;8;171;4489;4;213;460;22;9;97;2404;4;127;489;19
02.11.18;14:50:00;1;321;6694;0;2;206;4124;4;239;373;19;3;123;2575;4;159;499;21;4;153;3518;5;159;219;19;5;430;8515;4;204;187;386;603;28;6;311;6415;4;165;165;507;507;28;7;180;4400;4;213;428;22;8;183;4474;4;214;430;22;9;97;2396;4;125;483;19
02.11.18;14:45:00;1;320;6667;0;2;247;4107;4;281;376;19;3;151;2565;4;189;491;21;4;193;3505;5;201;223;19;5;517;8478;4;255;223;399;605;28;6;394;6389;4;204;219;571;539;28;7;234;4385;4;275;461;22;8;241;4459;4;278;445;22;9;129;2388;4;158;504;19
02.11.18;14:40:00;1;256;6641;0;2;259;4086;4;294;381;19;3;157;2552;4;195;490;22;4;202;3489;5;210;223;19;5;558;8435;4;271;244;393;624;29;6;417;6356;4;202;208;569;549;28;7;234;4366;4;277;447;22;8;246;4439;4;283;454;22;9;128;2377;4;159;510;19
02.11.18;14:35:00;1;460;6614;0;2;349;4065;4;387;393;20;3;215;2539;4;259;496;22;4;292;3472;5;304;231;19;5;746;8387;4;373;328;404;628;29;6;563;6320;4;277;283;568;552;28;7;343;4346;4;389;460;22;8;351;4418;4;393;456;22;9;190;2367;4;222;501;19
02.11.18;14:30:00;1;516;6574;0;2;362;4036;4;401;388;20;3;220;2522;4;262;501;22;4;299;3448;5;311;230;19;5;766;8324;4;375;334;402;645;29;6;568;6273;4;292;292;570;551;28;7;368;4318;4;395;444;22;8;365;4389;4;402;454;22;9;194;2351;4;226;507;19
02.11.18;14:25:00;1;469;6533;0;2;409;4006;4;450;386;20;3;256;2503;4;298;502;22;4;345;3423;5;359;235;20;5;868;8260;4;428;378;411;634;29;6;651;6225;4;332;342;560;557;28;7;437;4287;4;473;463;22;8;435;4359;4;475;474;22;9;234;2335;4;268;502;19
02.11.18;14:20:00;1;470;6494;0;2;360;3972;4;399;385;20;3;222;2482;4;263;488;22;4;298;3394;5;310;231;20;5;752;8188;4;380;323;409;625;29;6;573;6170;4;307;302;573;547;28;7;385;4250;4;423;464;22;8;390;4323;4;429;458;22;9;207;2315;4;240;507;19
02.11.18;14:15:00;1;427;6455;0;2;379;3941;4;419;387;20;3;236;2463;4;279;503;22;4;313;3369;5;326;233;20;5;785;8125;4;394;339;397;630;29;6;594;6123;4;305;299;567;551;28;7;381;4218;4;425;465;22;8;393;4290;4;430;459;22;9;208;2298;4;242;497;19
02.11.18;14:10:00;1;419;6419;0;2;376;3910;4;416;395;20;3;233;2444;4;276;494;22;4;313;3343;5;325;226;20;5;805;8059;4;395;347;403;640;29;6;602;6073;4;328;319;569;559;28;7;395;4187;4;430;466;22;8;396;4257;4;440;465;22;9;213;2280;4;247;502;20
02.11.18;14:05:00;1;419;6384;0;2;368;3878;4;405;390;21;3;227;2424;4;268;488;22;4;309;3317;5;321;227;20;5;805;7992;4;401;348;398;638;29;6;603;6023;4;307;309;570;554;28;7;382;4153;4;426;453;23;8;387;4224;4;426;448;22;9;212;2263;4;242;497;20
02.11.18;14:00:00;1;2513;6342;0;2;385;3848;4;425;389;21;3;239;2405;4;280;480;22;4;328;3291;5;342;231;20;5;858;7925;4;427;377;397;633;29;6;646;5972;4;334;334;559;549;28;7;408;4122;4;449;458;23;8;408;4192;4;449;441;22;9;221;2245;4;255;499;20
02.11.18;13:55:00;1;2374;6133;0;2;449;3815;4;491;388;21;3;279;2385;4;323;491;23;4;381;3264;5;397;228;20;5;989;7852;4;495;433;410;647;29;6;744;5918;4;398;397;574;546;28;7;458;4088;4;504;456;23;8;460;4158;4;501;444;22;9;246;2227;4;281;497;20
02.11.18;13:50:00;1;2374;5936;0;2;552;3778;4;596;389;22;3;343;2362;4;393;496;23;4;481;3232;5;501;232;20;5;1228;7769;4;622;534;413;665;29;6;925;5855;4;458;459;578;555;28;7;594;4050;4;633;469;23;8;593;4120;4;638;470;22;9;319;2206;4;360;512;20